Dew Point Data


Current

Temp 36.0 F. Dew Point 28.9 F.


Dew Point Comfort Scale

dewpoints

Date, Time Temperature Dew Point
Tue Nov 10 00:08:04 2020 68.0 F. 62.1 F.
Tue Nov 10 01:08:04 2020 68.0 F. 62.1 F.
Tue Nov 10 02:08:04 2020 67.0 F. 60.1 F.
Tue Nov 10 03:08:05 2020 67.0 F. 60.1 F.
Tue Nov 10 04:08:04 2020 67.0 F. 60.1 F.
Tue Nov 10 05:08:05 2020 67.0 F. 60.1 F.
Tue Nov 10 06:08:04 2020 67.0 F. 60.1 F.
Tue Nov 10 07:08:05 2020 67.0 F. 60.1 F.
Tue Nov 10 08:08:05 2020 67.0 F. 60.1 F.
Tue Nov 10 09:08:04 2020 70.0 F. 62.1 F.
Tue Nov 10 10:08:06 2020 70.0 F. 62.1 F.
Tue Nov 10 11:08:05 2020 73.0 F. 63.0 F.
Tue Nov 10 12:08:05 2020 73.0 F. 63.0 F.
Tue Nov 10 13:08:06 2020 78.0 F. 63.0 F.
Tue Nov 10 14:08:04 2020 78.0 F. 63.0 F.
Tue Nov 10 15:08:05 2020 77.0 F. 63.0 F.
Tue Nov 10 16:08:05 2020 76.0 F. 63.0 F.
Tue Nov 10 17:08:05 2020 74.0 F. 64.0 F.
Tue Nov 10 18:08:05 2020 74.0 F. 64.0 F.
Tue Nov 10 19:08:05 2020 73.0 F. 64.0 F.
Tue Nov 10 20:08:07 2020 72.0 F. 64.0 F.
Tue Nov 10 21:08:06 2020 58.0 F. 52.0 F.
Tue Nov 10 22:08:04 2020 57.0 F. 48.9 F.
Tue Nov 10 23:08:05 2020 57.0 F. 48.9 F.
Wed Nov 11 00:08:04 2020 54.0 F. 46.0 F.
Wed Nov 11 01:08:05 2020 51.0 F. 45.0 F.
Wed Nov 11 02:08:05 2020 49.0 F. 44.1 F.
Wed Nov 11 03:08:05 2020 49.0 F. 44.1 F.
Wed Nov 11 04:08:04 2020 47.0 F. 41.0 F.
Wed Nov 11 05:08:05 2020 47.0 F. 41.0 F.
Wed Nov 11 06:08:05 2020 44.0 F. 37.9 F.
Wed Nov 11 07:08:04 2020 43.0 F. 37.0 F.
Wed Nov 11 08:08:04 2020 43.0 F. 37.0 F.
Wed Nov 11 09:08:05 2020 42.0 F. 35.1 F.
Wed Nov 11 10:08:04 2020 47.0 F. 36.0 F.
Wed Nov 11 11:08:04 2020 48.0 F. 35.1 F.
Wed Nov 11 12:08:04 2020 51.0 F. 36.0 F.
Wed Nov 11 13:08:05 2020 53.0 F. 36.0 F.
Wed Nov 11 14:08:04 2020 53.0 F. 36.0 F.
Wed Nov 11 15:08:04 2020 55.0 F. 36.0 F.
Wed Nov 11 16:08:05 2020 55.0 F. 33.1 F.
Wed Nov 11 17:08:05 2020 54.0 F. 34.0 F.
Wed Nov 11 18:08:05 2020 47.0 F. 34.0 F.
Wed Nov 11 19:08:07 2020 46.0 F. 33.1 F.
Wed Nov 11 20:08:06 2020 45.0 F. 33.1 F.
Wed Nov 11 21:08:05 2020 42.0 F. 32.0 F.
Wed Nov 11 22:08:04 2020 42.0 F. 32.0 F.
Wed Nov 11 23:08:06 2020 39.0 F. 32.0 F.
Thu Nov 12 00:08:04 2020 39.0 F. 32.0 F.
Thu Nov 12 01:08:05 2020 37.0 F. 34.0 F.
Thu Nov 12 02:08:04 2020 34.0 F. 32.0 F.
Thu Nov 12 03:08:05 2020 32.0 F. 30.0 F.
Thu Nov 12 04:08:04 2020 32.0 F. 30.0 F.
Thu Nov 12 05:08:05 2020 32.0 F. 30.0 F.
Thu Nov 12 06:08:04 2020 31.0 F. 30.0 F.
Thu Nov 12 07:08:04 2020 31.0 F. 30.0 F.
Thu Nov 12 08:08:05 2020 30.0 F. 28.9 F.
Thu Nov 12 09:08:05 2020 43.0 F. 35.1 F.
Thu Nov 12 10:08:05 2020 48.0 F. 34.0 F.
Thu Nov 12 11:08:04 2020 48.0 F. 34.0 F.
Thu Nov 12 12:08:05 2020 56.0 F. 27.0 F.
Thu Nov 12 13:08:05 2020 56.0 F. 27.0 F.
Thu Nov 12 14:08:05 2020 57.0 F. 28.9 F.
Thu Nov 12 15:08:05 2020 61.0 F. 28.9 F.
Thu Nov 12 16:08:05 2020 61.0 F. 28.9 F.
Thu Nov 12 17:08:05 2020 60.0 F. 32.0 F.
Thu Nov 12 18:08:04 2020 49.0 F. 32.0 F.
Thu Nov 12 19:08:04 2020 49.0 F. 32.0 F.
Thu Nov 12 20:08:05 2020 48.0 F. 36.0 F.
Thu Nov 12 21:08:05 2020 48.0 F. 36.0 F.
Thu Nov 12 22:08:05 2020 48.0 F. 39.0 F.
Thu Nov 12 23:08:05 2020 49.0 F. 39.0 F.
Fri Nov 13 00:08:04 2020 47.0 F. 39.9 F.
Fri Nov 13 01:08:04 2020 42.0 F. 36.0 F.
Fri Nov 13 02:08:05 2020 42.0 F. 36.0 F.
Fri Nov 13 03:08:04 2020 49.0 F. 34.0 F.
Fri Nov 13 04:08:05 2020 49.0 F. 34.0 F.
Fri Nov 13 05:08:04 2020 49.0 F. 34.0 F.
Fri Nov 13 06:08:05 2020 49.0 F. 34.0 F.
Fri Nov 13 07:08:04 2020 49.0 F. 34.0 F.
Fri Nov 13 08:08:04 2020 39.0 F. 27.0 F.
Fri Nov 13 09:08:05 2020 42.0 F. 28.0 F.
Fri Nov 13 10:08:05 2020 43.0 F. 27.0 F.
Fri Nov 13 11:08:04 2020 47.0 F. 26.1 F.
Fri Nov 13 12:08:05 2020 47.0 F. 26.1 F.
Fri Nov 13 13:08:04 2020 50.0 F. 24.1 F.
Fri Nov 13 14:08:04 2020 51.0 F. 24.1 F.
Fri Nov 13 15:08:05 2020 51.0 F. 24.1 F.
Fri Nov 13 16:08:04 2020 52.0 F. 21.9 F.
Fri Nov 13 17:08:05 2020 46.0 F. 19.9 F.
Fri Nov 13 18:08:05 2020 46.0 F. 19.9 F.
Fri Nov 13 19:08:05 2020 39.0 F. 23.0 F.
Fri Nov 13 20:08:05 2020 38.0 F. 25.0 F.
Fri Nov 13 21:08:06 2020 37.0 F. 26.1 F.
Fri Nov 13 22:08:05 2020 34.0 F. 28.9 F.
Fri Nov 13 23:08:05 2020 35.0 F. 27.0 F.
Sat Nov 14 00:08:04 2020 35.0 F. 30.0 F.
Sat Nov 14 01:08:05 2020 35.0 F. 30.0 F.
Sat Nov 14 02:08:04 2020 39.0 F. 28.9 F.
Sat Nov 14 03:08:04 2020 40.0 F. 30.9 F.
Sat Nov 14 04:08:04 2020 38.0 F. 33.1 F.
Sat Nov 14 05:08:05 2020 38.0 F. 33.1 F.
Sat Nov 14 06:08:04 2020 39.0 F. 35.1 F.
Sat Nov 14 07:08:04 2020 40.0 F. 37.0 F.
Sat Nov 14 08:08:04 2020 41.0 F. 37.0 F.
Sat Nov 14 09:08:05 2020 42.0 F. 39.0 F.
Sat Nov 14 10:08:04 2020 44.0 F. 41.0 F.
Sat Nov 14 11:08:05 2020 47.0 F. 42.1 F.
Sat Nov 14 12:08:05 2020 47.0 F. 43.0 F.
Sat Nov 14 13:08:05 2020 48.0 F. 44.1 F.
Sat Nov 14 14:08:05 2020 49.0 F. 45.0 F.
Sat Nov 14 15:08:04 2020 51.0 F. 46.0 F.
Sat Nov 14 16:08:04 2020 50.0 F. 46.9 F.
Sat Nov 14 17:08:04 2020 50.0 F. 46.9 F.
Sat Nov 14 18:08:04 2020 50.0 F. 46.9 F.
Sat Nov 14 19:08:05 2020 54.0 F. 48.0 F.
Sat Nov 14 20:08:05 2020 62.0 F. 51.1 F.
Sat Nov 14 21:08:05 2020 62.0 F. 51.1 F.
Sat Nov 14 22:08:04 2020 64.0 F. 51.1 F.
Sat Nov 14 23:08:04 2020 69.0 F. 53.1 F.
Sun Nov 15 00:08:04 2020 69.0 F. 53.1 F.
Sun Nov 15 01:08:04 2020 69.0 F. 55.0 F.
Sun Nov 15 02:08:05 2020 58.0 F. 55.0 F.
Sun Nov 15 03:08:04 2020 57.0 F. 54.0 F.
Sun Nov 15 04:08:04 2020 57.0 F. 54.0 F.
Sun Nov 15 05:08:04 2020 57.0 F. 52.0 F.
Sun Nov 15 06:08:04 2020 56.0 F. 48.9 F.
Sun Nov 15 07:08:04 2020 54.0 F. 39.9 F.
Sun Nov 15 08:08:04 2020 51.0 F. 36.0 F.
Sun Nov 15 09:08:04 2020 51.0 F. 36.0 F.
Sun Nov 15 10:08:04 2020 50.0 F. 36.0 F.
Sun Nov 15 11:08:05 2020 52.0 F. 34.0 F.
Sun Nov 15 12:08:04 2020 54.0 F. 34.0 F.
Sun Nov 15 13:08:04 2020 55.0 F. 32.0 F.
Sun Nov 15 14:08:05 2020 55.0 F. 32.0 F.
Sun Nov 15 15:08:04 2020 56.0 F. 27.0 F.
Sun Nov 15 16:08:05 2020 56.0 F. 27.0 F.
Sun Nov 15 17:08:04 2020 53.0 F. 26.1 F.
Sun Nov 15 18:08:04 2020 53.0 F. 26.1 F.
Sun Nov 15 19:08:05 2020 46.0 F. 28.0 F.
Sun Nov 15 20:08:05 2020 45.0 F. 27.0 F.
Sun Nov 15 21:08:07 2020 44.0 F. 27.0 F.
Sun Nov 15 22:08:04 2020 43.0 F. 26.1 F.
Sun Nov 15 23:08:05 2020 43.0 F. 26.1 F.
Mon Nov 16 00:08:04 2020 42.0 F. 27.0 F.
Mon Nov 16 01:08:04 2020 43.0 F. 26.1 F.
Mon Nov 16 02:08:05 2020 39.0 F. 26.1 F.
Mon Nov 16 03:08:05 2020 38.0 F. 26.1 F.
Mon Nov 16 04:08:04 2020 35.0 F. 27.0 F.
Mon Nov 16 05:08:05 2020 32.0 F. 26.1 F.
Mon Nov 16 06:08:04 2020 32.0 F. 27.0 F.
Mon Nov 16 07:08:04 2020 32.0 F. 27.0 F.
Mon Nov 16 08:08:05 2020 34.0 F. 25.0 F.
Mon Nov 16 09:08:05 2020 38.0 F. 30.9 F.
Mon Nov 16 10:08:04 2020 53.0 F. 27.0 F.
Mon Nov 16 11:08:05 2020 53.0 F. 27.0 F.
Mon Nov 16 12:08:04 2020 60.0 F. 24.1 F.
Mon Nov 16 13:08:04 2020 62.0 F. 26.1 F.
Mon Nov 16 14:08:04 2020 62.0 F. 26.1 F.
Mon Nov 16 15:08:05 2020 62.0 F. 25.0 F.
Mon Nov 16 16:08:05 2020 61.0 F. 30.0 F.
Mon Nov 16 17:08:04 2020 60.0 F. 28.0 F.
Mon Nov 16 18:08:04 2020 55.0 F. 30.0 F.
Mon Nov 16 19:08:05 2020 53.0 F. 30.9 F.
Mon Nov 16 20:08:04 2020 53.0 F. 32.0 F.
Mon Nov 16 21:08:05 2020 51.0 F. 33.1 F.
Mon Nov 16 22:08:04 2020 51.0 F. 33.1 F.
Mon Nov 16 23:08:04 2020 51.0 F. 30.0 F.
Tue Nov 17 00:08:05 2020 51.0 F. 30.0 F.
Tue Nov 17 01:08:05 2020 52.0 F. 28.9 F.
Tue Nov 17 02:08:04 2020 50.0 F. 28.0 F.
Tue Nov 17 03:08:05 2020 48.0 F. 28.0 F.
Tue Nov 17 04:08:05 2020 47.0 F. 28.0 F.
Tue Nov 17 05:08:05 2020 47.0 F. 28.0 F.
Tue Nov 17 06:08:05 2020 47.0 F. 28.0 F.
Tue Nov 17 07:08:05 2020 47.0 F. 28.0 F.
Tue Nov 17 08:08:05 2020 42.0 F. 30.0 F.
Tue Nov 17 09:08:05 2020 42.0 F. 30.0 F.
Tue Nov 17 10:08:04 2020 44.0 F. 30.0 F.
Tue Nov 17 11:08:05 2020 45.0 F. 27.0 F.
Tue Nov 17 12:08:04 2020 48.0 F. 23.0 F.
Tue Nov 17 13:08:04 2020 49.0 F. 21.9 F.
Tue Nov 17 14:08:05 2020 50.0 F. 21.0 F.
Tue Nov 17 15:08:05 2020 50.0 F. 19.9 F.
Tue Nov 17 16:08:04 2020 49.0 F. 19.0 F.
Tue Nov 17 17:08:04 2020 45.0 F. 19.0 F.
Tue Nov 17 18:08:04 2020 45.0 F. 19.0 F.
Tue Nov 17 19:08:04 2020 38.0 F. 26.1 F.
Tue Nov 17 20:08:05 2020 38.0 F. 26.1 F.
Tue Nov 17 21:08:04 2020 33.0 F. 26.1 F.
Tue Nov 17 22:08:05 2020 33.0 F. 26.1 F.
Tue Nov 17 23:08:04 2020 31.0 F. 25.0 F.
Wed Nov 18 00:08:04 2020 30.0 F. 25.0 F.
Wed Nov 18 01:08:05 2020 30.0 F. 25.0 F.
Wed Nov 18 02:08:04 2020 32.0 F. 25.0 F.
Wed Nov 18 03:08:04 2020 30.0 F. 26.1 F.
Wed Nov 18 04:08:04 2020 30.0 F. 25.0 F.
Wed Nov 18 05:08:05 2020 28.0 F. 24.1 F.
Wed Nov 18 06:08:05 2020 32.0 F. 21.0 F.
Wed Nov 18 07:08:05 2020 32.0 F. 19.9 F.
Wed Nov 18 08:08:04 2020 32.0 F. 19.9 F.
Wed Nov 18 09:08:05 2020 36.0 F. 24.1 F.
Wed Nov 18 10:08:05 2020 47.0 F. 23.0 F.
Wed Nov 18 11:08:05 2020 50.0 F. 23.0 F.
Wed Nov 18 12:08:05 2020 53.0 F. 23.0 F.
Wed Nov 18 13:08:05 2020 55.0 F. 21.9 F.
Wed Nov 18 14:08:04 2020 57.0 F. 21.9 F.
Wed Nov 18 15:08:04 2020 58.0 F. 21.0 F.
Wed Nov 18 16:08:05 2020 58.0 F. 21.0 F.
Wed Nov 18 17:08:04 2020 53.0 F. 23.0 F.
Wed Nov 18 18:08:04 2020 53.0 F. 23.0 F.
Wed Nov 18 19:08:05 2020 50.0 F. 23.0 F.
Wed Nov 18 20:08:05 2020 50.0 F. 23.0 F.
Wed Nov 18 21:08:04 2020 51.0 F. 23.0 F.
Wed Nov 18 22:08:04 2020 51.0 F. 23.0 F.
Wed Nov 18 23:08:05 2020 51.0 F. 24.1 F.
Thu Nov 19 00:08:05 2020 49.0 F. 26.1 F.
Thu Nov 19 01:08:05 2020 49.0 F. 26.1 F.
Thu Nov 19 02:08:05 2020 55.0 F. 26.1 F.
Thu Nov 19 03:08:04 2020 55.0 F. 26.1 F.
Thu Nov 19 04:08:05 2020 54.0 F. 27.0 F.
Thu Nov 19 05:08:05 2020 54.0 F. 27.0 F.
Thu Nov 19 06:08:04 2020 53.0 F. 27.0 F.
Thu Nov 19 07:08:04 2020 53.0 F. 27.0 F.
Thu Nov 19 08:08:05 2020 56.0 F. 30.0 F.
Thu Nov 19 09:08:04 2020 56.0 F. 30.0 F.
Thu Nov 19 10:08:04 2020 58.0 F. 30.0 F.
Thu Nov 19 11:08:04 2020 61.0 F. 30.9 F.
Thu Nov 19 12:08:04 2020 63.0 F. 33.1 F.
Thu Nov 19 13:08:05 2020 65.0 F. 34.0 F.
Thu Nov 19 14:08:05 2020 67.0 F. 30.9 F.
Thu Nov 19 15:08:05 2020 68.0 F. 26.1 F.
Thu Nov 19 16:08:05 2020 68.0 F. 26.1 F.
Thu Nov 19 17:08:05 2020 67.0 F. 25.0 F.
Thu Nov 19 18:08:04 2020 63.0 F. 26.1 F.
Thu Nov 19 19:08:05 2020 63.0 F. 26.1 F.
Thu Nov 19 20:08:05 2020 63.0 F. 26.1 F.
Thu Nov 19 21:08:05 2020 60.0 F. 28.0 F.
Thu Nov 19 22:08:05 2020 59.0 F. 28.0 F.
Thu Nov 19 23:08:04 2020 59.0 F. 28.0 F.
Fri Nov 20 00:08:04 2020 58.0 F. 28.9 F.
Fri Nov 20 01:08:04 2020 56.0 F. 30.0 F.
Fri Nov 20 02:08:05 2020 55.0 F. 30.9 F.
Fri Nov 20 03:08:05 2020 55.0 F. 30.9 F.
Fri Nov 20 04:08:05 2020 56.0 F. 33.1 F.
Fri Nov 20 05:08:05 2020 56.0 F. 33.1 F.
Fri Nov 20 06:08:05 2020 55.0 F. 35.1 F.
Fri Nov 20 07:08:04 2020 56.0 F. 36.0 F.
Fri Nov 20 08:08:04 2020 56.0 F. 36.0 F.
Fri Nov 20 09:08:05 2020 56.0 F. 37.9 F.
Fri Nov 20 10:08:04 2020 58.0 F. 44.1 F.
Fri Nov 20 11:08:05 2020 58.0 F. 44.1 F.
Fri Nov 20 12:08:04 2020 62.0 F. 46.9 F.
Fri Nov 20 13:08:05 2020 62.0 F. 48.9 F.
Fri Nov 20 14:08:04 2020 64.0 F. 51.1 F.
Fri Nov 20 15:08:05 2020 66.0 F. 53.1 F.
Fri Nov 20 16:08:04 2020 66.0 F. 55.0 F.
Fri Nov 20 17:08:04 2020 66.0 F. 55.0 F.
Fri Nov 20 18:08:04 2020 65.0 F. 54.0 F.
Fri Nov 20 19:08:04 2020 62.0 F. 53.1 F.
Fri Nov 20 20:08:05 2020 62.0 F. 53.1 F.
Fri Nov 20 21:08:05 2020 62.0 F. 53.1 F.
Fri Nov 20 22:08:05 2020 61.0 F. 53.1 F.
Fri Nov 20 23:08:04 2020 59.0 F. 53.1 F.
Sat Nov 21 00:08:04 2020 59.0 F. 53.1 F.
Sat Nov 21 01:08:04 2020 59.0 F. 54.0 F.
Sat Nov 21 02:08:05 2020 59.0 F. 54.0 F.
Sat Nov 21 03:08:05 2020 59.0 F. 54.0 F.
Sat Nov 21 04:08:04 2020 54.0 F. 50.0 F.
Sat Nov 21 05:08:05 2020 52.0 F. 48.9 F.
Sat Nov 21 06:08:05 2020 52.0 F. 48.9 F.
Sat Nov 21 07:08:05 2020 51.0 F. 48.0 F.
Sat Nov 21 08:08:04 2020 51.0 F. 48.0 F.
Sat Nov 21 09:08:04 2020 49.0 F. 46.9 F.
Sat Nov 21 10:08:05 2020 50.0 F. 48.0 F.
Sat Nov 21 11:08:05 2020 50.0 F. 48.0 F.
Sat Nov 21 12:08:05 2020 51.0 F. 48.9 F.
Sat Nov 21 13:08:04 2020 51.0 F. 48.9 F.
Sat Nov 21 14:08:05 2020 51.0 F. 48.9 F.
Sat Nov 21 15:08:04 2020 50.0 F. 48.0 F.
Sat Nov 21 16:08:05 2020 50.0 F. 48.0 F.
Sat Nov 21 17:08:04 2020 50.0 F. 48.0 F.
Sat Nov 21 18:08:04 2020 50.0 F. 48.0 F.
Sat Nov 21 19:08:05 2020 50.0 F. 48.0 F.
Sat Nov 21 20:08:05 2020 50.0 F. 48.0 F.
Sat Nov 21 21:08:05 2020 50.0 F. 48.0 F.
Sat Nov 21 22:08:05 2020 50.0 F. 48.0 F.
Sat Nov 21 23:08:05 2020 49.0 F. 46.9 F.
Sun Nov 22 00:08:05 2020 48.0 F. 46.0 F.
Sun Nov 22 01:08:04 2020 48.0 F. 46.0 F.
Sun Nov 22 02:08:04 2020 47.0 F. 45.0 F.
Sun Nov 22 03:08:04 2020 46.0 F. 44.1 F.
Sun Nov 22 04:08:04 2020 46.0 F. 44.1 F.
Sun Nov 22 05:08:04 2020 46.0 F. 44.1 F.
Sun Nov 22 06:08:04 2020 45.0 F. 43.0 F.
Sun Nov 22 07:08:05 2020 45.0 F. 42.1 F.
Sun Nov 22 08:08:05 2020 44.0 F. 42.1 F.
Sun Nov 22 09:08:05 2020 44.0 F. 41.0 F.
Sun Nov 22 10:08:04 2020 44.0 F. 41.0 F.
Sun Nov 22 11:08:05 2020 44.0 F. 41.0 F.
Sun Nov 22 12:08:04 2020 43.0 F. 39.9 F.
Sun Nov 22 13:08:04 2020 45.0 F. 39.9 F.
Sun Nov 22 14:08:05 2020 44.0 F. 39.9 F.
Sun Nov 22 15:08:05 2020 46.0 F. 39.9 F.
Sun Nov 22 16:08:05 2020 45.0 F. 39.9 F.
Sun Nov 22 17:08:04 2020 46.0 F. 39.0 F.
Sun Nov 22 18:08:05 2020 45.0 F. 39.0 F.
Sun Nov 22 19:08:05 2020 40.0 F. 37.9 F.
Sun Nov 22 20:08:05 2020 40.0 F. 37.9 F.
Sun Nov 22 21:08:05 2020 37.0 F. 35.1 F.
Sun Nov 22 22:08:05 2020 37.0 F. 35.1 F.
Sun Nov 22 23:08:04 2020 35.0 F. 34.0 F.
Mon Nov 23 00:08:04 2020 34.0 F. 33.1 F.
Mon Nov 23 01:08:05 2020 34.0 F. 33.1 F.
Mon Nov 23 02:08:04 2020 35.0 F. 33.1 F.
Mon Nov 23 03:08:05 2020 35.0 F. 33.1 F.
Mon Nov 23 04:08:05 2020 33.0 F. 32.0 F.
Mon Nov 23 05:08:04 2020 33.0 F. 30.9 F.
Mon Nov 23 06:08:04 2020 30.0 F. 28.9 F.
Mon Nov 23 07:08:05 2020 30.0 F. 28.9 F.
Mon Nov 23 08:08:04 2020 30.0 F. 28.9 F.
Mon Nov 23 09:08:04 2020 33.0 F. 32.0 F.
Mon Nov 23 10:08:05 2020 45.0 F. 39.0 F.
Mon Nov 23 11:08:04 2020 48.0 F. 39.0 F.
Mon Nov 23 12:08:04 2020 48.0 F. 39.0 F.
Mon Nov 23 13:08:04 2020 50.0 F. 39.9 F.
Mon Nov 23 14:08:04 2020 49.0 F. 37.0 F.
Mon Nov 23 15:08:04 2020 54.0 F. 36.0 F.
Mon Nov 23 16:08:20 2020 54.0 F. 36.0 F.
Mon Nov 23 17:08:05 2020 54.0 F. 36.0 F.
Mon Nov 23 18:08:05 2020 51.0 F. 37.0 F.
Mon Nov 23 19:08:05 2020 47.0 F. 39.0 F.
Mon Nov 23 20:08:04 2020 45.0 F. 37.0 F.
Mon Nov 23 21:08:05 2020 43.0 F. 37.0 F.
Mon Nov 23 22:08:04 2020 43.0 F. 36.0 F.
Mon Nov 23 23:08:04 2020 44.0 F. 36.0 F.
Tue Nov 24 00:08:05 2020 42.0 F. 37.0 F.
Tue Nov 24 01:08:05 2020 43.0 F. 37.0 F.
Tue Nov 24 02:08:05 2020 44.0 F. 37.0 F.
Tue Nov 24 03:08:05 2020 44.0 F. 37.0 F.
Tue Nov 24 04:08:04 2020 43.0 F. 37.9 F.
Tue Nov 24 05:08:05 2020 42.0 F. 37.0 F.
Tue Nov 24 06:08:04 2020 45.0 F. 36.0 F.
Tue Nov 24 07:08:05 2020 45.0 F. 36.0 F.
Tue Nov 24 08:08:04 2020 45.0 F. 36.0 F.
Tue Nov 24 09:08:04 2020 46.0 F. 36.0 F.
Tue Nov 24 10:08:05 2020 47.0 F. 36.0 F.
Tue Nov 24 11:08:05 2020 50.0 F. 37.0 F.
Tue Nov 24 12:08:05 2020 51.0 F. 37.0 F.
Tue Nov 24 13:08:05 2020 52.0 F. 36.0 F.
Tue Nov 24 14:08:04 2020 53.0 F. 37.9 F.
Tue Nov 24 15:08:04 2020 54.0 F. 37.9 F.
Tue Nov 24 16:08:04 2020 53.0 F. 37.0 F.
Tue Nov 24 17:08:04 2020 51.0 F. 37.9 F.
Tue Nov 24 18:08:04 2020 50.0 F. 37.9 F.
Tue Nov 24 19:08:05 2020 49.0 F. 37.0 F.
Tue Nov 24 20:08:05 2020 51.0 F. 36.0 F.
Tue Nov 24 21:08:04 2020 53.0 F. 35.1 F.
Tue Nov 24 22:08:04 2020 51.0 F. 39.0 F.
Tue Nov 24 23:08:04 2020 47.0 F. 43.0 F.
Wed Nov 25 00:08:04 2020 47.0 F. 43.0 F.
Wed Nov 25 01:08:04 2020 47.0 F. 46.0 F.
Wed Nov 25 02:08:04 2020 49.0 F. 46.9 F.
Wed Nov 25 03:08:05 2020 49.0 F. 46.9 F.
Wed Nov 25 04:08:04 2020 51.0 F. 48.9 F.
Wed Nov 25 05:08:04 2020 51.0 F. 48.9 F.
Wed Nov 25 06:08:05 2020 49.0 F. 48.0 F.
Wed Nov 25 07:08:04 2020 49.0 F. 48.0 F.
Wed Nov 25 08:08:04 2020 57.0 F. 53.6 F.
Wed Nov 25 09:08:05 2020 59.0 F. 55.4 F.
Wed Nov 25 10:08:04 2020 59.0 F. 55.4 F.
Wed Nov 25 11:08:04 2020 63.0 F. 55.4 F.
Wed Nov 25 12:08:04 2020 63.0 F. 53.6 F.
Wed Nov 25 13:08:04 2020 59.0 F. 53.6 F.
Wed Nov 25 14:08:05 2020 59.0 F. 53.6 F.
Wed Nov 25 15:08:05 2020 59.0 F. 53.6 F.
Wed Nov 25 16:08:04 2020 57.0 F. 48.2 F.
Wed Nov 25 17:08:05 2020 57.0 F. 48.2 F.
Wed Nov 25 18:08:04 2020 57.0 F. 48.2 F.
Wed Nov 25 19:08:04 2020 57.0 F. 48.2 F.
Wed Nov 25 20:08:05 2020 57.0 F. 48.2 F.
Wed Nov 25 21:08:05 2020 57.0 F. 48.2 F.
Wed Nov 25 22:08:04 2020 57.0 F. 48.2 F.
Wed Nov 25 23:08:04 2020 57.0 F. 48.2 F.
Thu Nov 26 00:08:05 2020 57.0 F. 48.2 F.
Thu Nov 26 01:08:04 2020 57.0 F. 48.2 F.
Thu Nov 26 02:08:05 2020 57.0 F. 48.2 F.
Thu Nov 26 03:08:05 2020 57.0 F. 48.2 F.
Thu Nov 26 04:08:04 2020 57.0 F. 48.2 F.
Thu Nov 26 05:08:04 2020 57.0 F. 48.2 F.
Thu Nov 26 06:08:05 2020 57.0 F. 48.2 F.
Thu Nov 26 07:08:05 2020 57.0 F. 48.2 F.
Thu Nov 26 08:08:04 2020 46.0 F. 42.8 F.
Thu Nov 26 09:08:04 2020 46.0 F. 42.8 F.
Thu Nov 26 10:08:04 2020 48.0 F. 42.8 F.
Thu Nov 26 11:08:04 2020 48.0 F. 41.0 F.
Thu Nov 26 12:08:04 2020 48.0 F. 42.8 F.
Thu Nov 26 13:08:04 2020 48.0 F. 42.8 F.
Thu Nov 26 14:08:04 2020 48.0 F. 42.8 F.
Thu Nov 26 15:08:04 2020 48.0 F. 42.8 F.
Thu Nov 26 16:08:05 2020 48.0 F. 42.8 F.
Thu Nov 26 17:08:04 2020 48.0 F. 42.8 F.
Thu Nov 26 18:08:04 2020 48.0 F. 42.8 F.
Thu Nov 26 19:08:04 2020 45.0 F. 39.2 F.
Thu Nov 26 20:08:05 2020 45.0 F. 39.2 F.
Thu Nov 26 21:08:05 2020 45.0 F. 39.2 F.
Thu Nov 26 22:08:04 2020 45.0 F. 39.2 F.
Thu Nov 26 23:08:04 2020 45.0 F. 39.2 F.
Fri Nov 27 00:08:05 2020 45.0 F. 39.2 F.
Fri Nov 27 01:08:04 2020 45.0 F. 39.2 F.
Fri Nov 27 02:08:05 2020 45.0 F. 39.2 F.
Fri Nov 27 03:08:04 2020 45.0 F. 39.2 F.
Fri Nov 27 04:08:04 2020 45.0 F. 39.2 F.
Fri Nov 27 05:08:04 2020 45.0 F. 39.2 F.
Fri Nov 27 06:08:05 2020 45.0 F. 39.2 F.
Fri Nov 27 07:08:04 2020 45.0 F. 39.2 F.
Fri Nov 27 08:08:05 2020 37.0 F. 35.6 F.
Fri Nov 27 09:08:05 2020 41.0 F. 37.4 F.
Fri Nov 27 10:08:05 2020 45.0 F. 42.8 F.
Fri Nov 27 11:08:05 2020 48.0 F. 44.6 F.
Fri Nov 27 12:08:04 2020 53.0 F. 44.1 F.
Fri Nov 27 13:08:05 2020 58.0 F. 44.1 F.
Fri Nov 27 14:08:04 2020 58.0 F. 44.1 F.
Fri Nov 27 15:08:05 2020 58.0 F. 45.0 F.
Fri Nov 27 16:08:04 2020 57.0 F. 45.0 F.
Fri Nov 27 17:08:04 2020 55.0 F. 43.0 F.
Fri Nov 27 18:08:05 2020 50.0 F. 43.0 F.
Fri Nov 27 19:08:04 2020 48.0 F. 41.0 F.
Fri Nov 27 20:08:05 2020 45.0 F. 39.9 F.
Fri Nov 27 21:08:05 2020 45.0 F. 39.9 F.
Fri Nov 27 22:08:05 2020 44.0 F. 37.0 F.
Fri Nov 27 23:08:04 2020 41.0 F. 36.0 F.
Sat Nov 28 00:08:05 2020 38.0 F. 33.1 F.
Sat Nov 28 01:08:04 2020 38.0 F. 32.0 F.
Sat Nov 28 02:08:05 2020 38.0 F. 32.0 F.
Sat Nov 28 03:08:04 2020 35.0 F. 32.0 F.
Sat Nov 28 04:08:05 2020 31.0 F. 30.0 F.
Sat Nov 28 05:08:04 2020 31.0 F. 28.9 F.
Sat Nov 28 06:08:05 2020 30.0 F. 28.0 F.
Sat Nov 28 07:08:05 2020 29.0 F. 27.0 F.
Sat Nov 28 08:08:05 2020 32.0 F. 30.0 F.
Sat Nov 28 09:08:05 2020 32.0 F. 30.0 F.
Sat Nov 28 10:08:05 2020 38.0 F. 33.1 F.
Sat Nov 28 11:08:04 2020 42.0 F. 30.0 F.
Sat Nov 28 12:08:04 2020 45.0 F. 30.0 F.
Sat Nov 28 13:08:04 2020 48.0 F. 27.0 F.
Sat Nov 28 14:08:04 2020 50.0 F. 28.0 F.
Sat Nov 28 15:08:04 2020 51.0 F. 28.0 F.
Sat Nov 28 16:08:04 2020 51.0 F. 28.0 F.
Sat Nov 28 17:08:04 2020 46.0 F. 27.0 F.
Sat Nov 28 18:08:04 2020 42.0 F. 30.0 F.
Sat Nov 28 19:08:05 2020 39.0 F. 30.9 F.
Sat Nov 28 20:08:05 2020 36.0 F. 28.9 F.
Sat Nov 28 21:08:04 2020 36.0 F. 28.9 F.